Погода в Сергеевке

Россия / Хабаровский край     48°28′22″N   135°23′08″E
темп.,
°C
ветер,
м/с
пор.,
м/с
влажн.,
%
обл.,
%
осадки,
мм/ч
давл.,
гПа
погр.,
м
26 января, вт
вт2601:00−21ссв369382 0.0 1031113
04:00−19св488791 0.0 1028236
07:00−18св4686100 0.0 1026242
10:00−18св3597100 1.1 1023201
13:00−15ссв3595100 1.6 1020202
16:00−14ссв3496100 3.1 1018155
19:00−15ссв3496100 1.3 1017131
22:00−15с3596100 1.8 1017142
27 января, ср
ср2701:00−16ссз2397100 0.2 101688
04:00−18с2297100 0.3 101534
07:00−19ссз2398100 0.1 101547
10:00−19зсз2398100 0.3 1016134
13:00−16з359099 0.1 1017511
16:00−17з369099 0.1 1017456
19:00−21ююз348812 0.0 101828
22:00−20юз389630 0.0 1019206
28 января, чт
чт2801:00−22юз5109165 0.0 1019202
04:00−24юз499032 0.0 1020159
07:00−26ююз34900 0.0 102152
10:00−25ююз35920 0.0 1022122
13:00−20ююз13810 0.0 1021432
16:00−19вюв118512 0.0 1019135
19:00−25в119018 0.0 101920
22:00−23ссв228757 0.0 102020
29 января, пт
пт2901:00−26св238957 0.0 101820
04:00−26с359156 0.0 101683
07:00−25с3693100 0.0 1015173
10:00−24с4793100 0.0 1016265
13:00−21с5789100 0.0 1013404
16:00−20ссз4795100 0.1 1014516
19:00−21ссз2599100 0.5 1016205
22:00−21зсз2399100 0.9 101795
30 января, сб
сб3001:00−21з2399100 0.3 101887
04:00−22з2498100 0.8 1020115
07:00−22зюз2399100 0.3 1022102
10:00−23ююз2397100 0.5 1023155
13:00−22зюз1286100 0.0 1023373
16:00−22юз128578 0.0 1022291
19:00−27з129383 0.0 102337
22:00−30ююз129375 0.0 102322